FW6626 Weather Reports


Display with metric or nautical units.
time (UTC)temp
F
wind
direction
speed
MPH
gust
MPH
rain 1hr
in
rain 24hr
in
rain mn
in
humidity
%
barometer
mb
20260901061604 68 157 1.0 3.0 0.00 0.00 0.00 85 1014.8
20260901060104 68 157 1.0 3.0 0.00 0.00 0.00 85 1014.8
20260901054555 68 0 0.0 0.0 0.00 0.00 0.00 86 1014.8
20260901053102 68 0 0.0 0.0 0.00 0.00 0.00 86 1014.7
20260901051600 68 0 0.0 0.0 0.00 0.00 0.00 85 1014.6
20260901050058 68 0 0.0 2.0 0.00 0.00 0.00 85 1014.6
20260901044558 68 0 0.0 2.0 0.00 0.00 0.00 85 1014.6
20260901043103 68 157 0.0 5.0 0.00 0.00 0.00 85 1014.5
20260901041557 68 158 1.0 5.0 0.00 0.00 0.00 85 1014.4
20260901040104 68 161 2.0 4.0 0.00 0.00 0.00 84 1014.4
20260901034559 69 190 2.0 4.0 0.00 0.00 0.00 84 1014.3
20260901033056 69 232 1.0 3.0 0.00 0.00 0.00 84 1014.1
20260901031602 69 0 0.0 0.0 0.00 0.00 0.00 83 1013.7
20260901030101 69 0 0.0 3.0 0.00 0.00 0.00 82 1013.7
20260901024602 70 238 0.0 4.0 0.00 0.00 0.00 81 1013.4
20260901023103 70 243 0.0 7.0 0.00 0.00 0.00 80 1013.3
20260901021602 71 250 1.0 6.0 0.00 0.00 0.00 79 1013.2
20260901020059 72 253 2.0 6.0 0.00 0.00 0.00 79 1013.0
20260901014555 72 268 3.0 8.0 0.00 0.00 0.00 78 1012.8
20260901013109 73 360 2.0 9.0 0.00 0.00 0.00 77 1013.0
20260901011556 74 255 3.0 9.0 0.00 0.00 0.00 75 1013.0
20260901010106 75 258 3.0 9.0 0.00 0.00 0.00 71 1013.1
20260901004611 75 360 6.0 11.0 0.00 0.00 0.00 72 1013.3
20260901003108 76 240 4.0 10.0 0.00 0.00 0.00 72 1013.4
20260901001609 75 252 6.0 12.0 0.00 0.00 0.00 73 1013.4
20260901000057 76 283 5.0 11.0 0.00 0.00 0.00 74 1013.4
20260831234602 76 245 5.0 12.0 0.00 0.00 0.00 73 1013.6
20260831233058 77 219 4.0 12.0 0.00 0.00 0.00 72 1013.5
20260831231615 76 252 6.0 12.0 0.00 0.00 0.00 73 1013.4
20260831230113 77 292 6.0 13.0 0.00 0.00 0.00 73 1013.6
20260831224605 76 360 7.0 13.0 0.00 0.00 0.00 73 1013.7
20260831223110 77 258 6.0 12.0 0.00 0.00 0.00 72 1013.8
20260831221605 77 242 7.0 14.0 0.00 0.00 0.00 72 1014.1
20260831220100 77 281 6.0 14.0 0.00 0.00 0.00 71 1014.2
20260831214603 77 291 6.0 15.0 0.00 0.00 0.00 72 1014.0
20260831213101 77 360 7.0 13.0 0.00 0.00 0.00 71 1014.0
20260831211616 78 227 6.0 14.0 0.00 0.00 0.00 70 1014.2
20260831210110 78 360 7.0 12.0 0.00 0.00 0.00 70 1014.2
20260831204606 78 228 5.0 11.0 0.00 0.00 0.00 71 1014.5
20260831203102 78 291 6.0 11.0 0.00 0.00 0.00 70 1014.4
20260831201611 78 207 4.0 10.0 0.00 0.00 0.00 70 1014.5
20260831200107 78 204 4.0 11.0 0.00 0.00 0.00 70 1014.5
20260831194642 78 237 6.0 11.0 0.00 0.00 0.00 70 1014.5
20260831193100 78 242 5.0 11.0 0.00 0.00 0.00 71 1014.6
20260831191608 79 186 4.0 11.0 0.00 0.00 0.00 69 1014.7
20260831190108 79 198 4.0 11.0 0.00 0.00 0.00 69 1014.8
20260831184601 78 185 3.0 11.0 0.00 0.00 0.00 70 1014.9
20260831183104 79 241 5.0 12.0 0.00 0.00 0.00 70 1014.8
20260831181555 78 360 5.0 10.0 0.00 0.00 0.00 71 1015.0
20260831180107 77 277 4.0 10.0 0.00 0.00 0.00 71 1014.8
20260831174601 77 225 4.0 9.0 0.00 0.00 0.00 71 1014.6
20260831173057 77 360 5.0 10.0 0.00 0.00 0.00 71 1014.5
20260831171600 79 180 4.0 10.0 0.00 0.00 0.00 67 1014.4
20260831170105 78 360 3.0 9.0 0.00 0.00 0.00 69 1014.5
20260831164601 79 178 1.0 6.0 0.00 0.00 0.00 68 1014.5
20260831163058 79 188 1.0 8.0 0.00 0.00 0.00 67 1014.4
20260831161553 79 121 4.0 8.0 0.00 0.00 0.00 65 1014.4
20260831160059 79 153 2.0 7.0 0.00 0.00 0.00 66 1014.4
20260831154617 76 108 2.0 6.0 0.00 0.00 0.00 73 1014.4
20260831153114 74 150 0.0 2.0 0.00 0.00 0.00 75 1014.3
20260831151605 73 150 0.0 2.0 0.00 0.00 0.00 76 1014.3
20260831150059 72 0 0.0 2.0 0.00 0.00 0.00 78 1014.2
20260831144630 71 0 0.0 1.0 0.00 0.00 0.00 79 1014.1
20260831143104 70 0 0.0 2.0 0.00 0.00 0.00 80 1014.1
20260831141557 70 150 0.0 2.0 0.00 0.00 0.00 81 1013.8
20260831140055 70 0 0.0 0.0 0.00 0.00 0.00 81 1013.7
20260831134600 70 0 0.0 1.0 0.00 0.00 0.00 81 1013.4
20260831133102 70 0 0.0 1.0 0.00 0.00 0.00 81 1013.2
20260831131603 70 0 0.0 1.0 0.00 0.00 0.00 81 1013.1
20260831130109 70 150 1.0 2.0 0.00 0.00 0.00 81 1013.2
20260831124603 70 150 1.0 3.0 0.00 0.00 0.00 81 1013.0
20260831123058 70 149 1.0 6.0 0.00 0.00 0.00 81 1013.1
20260831121603 70 148 2.0 5.0 0.00 0.00 0.00 82 1013.0
20260831120100 70 0 1.0 3.0 0.00 0.00 0.00 82 1013.1
20260831114600 70 150 0.0 2.0 0.00 0.00 0.00 82 1013.0
20260831113110 70 150 0.0 6.0 0.00 0.00 0.00 83 1013.0
20260831111604 69 84 2.0 5.0 0.00 0.00 0.00 85 1013.1
20260831110059 69 92 1.0 4.0 0.00 0.00 0.00 85 1013.1
20260831104603 69 92 1.0 4.0 0.00 0.00 0.00 86 1013.2
20260831103058 69 92 0.0 4.0 0.00 0.00 0.00 85 1013.1
20260831101555 69 131 2.0 5.0 0.00 0.00 0.00 85 1013.2
20260831100122 70 213 1.0 5.0 0.00 0.00 0.00 86 1013.2
20260831094556 69 161 3.0 5.0 0.00 0.00 0.00 86 1013.1
20260831093101 69 164 1.0 4.0 0.00 0.00 0.00 86 1013.1
20260831091603 69 165 1.0 2.0 0.00 0.00 0.00 87 1013.1
20260831090056 69 165 1.0 2.0 0.00 0.00 0.00 87 1013.1
20260831084634 69 165 1.0 5.0 0.00 0.00 0.00 87 1013.3
20260831083104 69 166 2.0 4.0 0.00 0.00 0.00 87 1013.1
20260831081601 70 166 2.0 5.0 0.00 0.00 0.00 86 1013.2
20260831080128 70 167 2.0 4.0 0.00 0.00 0.00 86 1013.3
20260831074609 70 167 2.0 4.0 0.00 0.00 0.00 86 1013.4
20260831073105 69 167 3.0 5.0 0.00 0.00 0.00 87 1013.3
20260831071608 69 238 2.0 4.0 0.00 0.00 0.00 87 1013.3
20260831070106 69 242 2.0 4.0 0.00 0.00 0.00 86 1013.2
20260831064604 69 242 1.0 3.0 0.00 0.00 0.00 86 1013.3
20260831063112 70 242 1.0 3.0 0.00 0.00 0.00 86 1013.1